Weather History for Akron, CO

Change the Weather History Date:

Monday, April 22, 2013

  Actual Average Record
Temperature  
Mean Temperature 36 °F 49 °F  
Max Temperature 50 °F 63 °F 86 °F (1939)
Min Temperature 21 °F 35 °F 16 °F (1951)
Degree Days  
Heating Degree Days 29    
Month to date heating degree days 586  
Cooling Degree Days 0    
Month to date cooling degree days 0  
Moisture  
Dew Point 28 °F    
Average Humidity 93    
Maximum Humidity 100    
Minimum Humidity 85    
Precipitation  
Precipitation 0.07 in 0.06 in 0.84 in (1971)
Month to date precipitation 0.82 1.09  
Year to date precipitation 2.43 2.70  
Sea Level Pressure  
Sea Level Pressure 30.13 in    
Wind  
Wind Speed 19 mph (NNE)    
Max Wind Speed 35 mph    
Max Gust Speed 43 mph    
Visibility 3 miles    
Events Fog , Rain , Snow    
T = Trace of Precipitation, MM = Missing Value Source: NWS Daily Summary

Daily Weather History Graph

Daily Weather History Graph

Search for Another Location

Airport:

Trip Planner

Search our weather history database for the weather conditions in past years. The results will help you decide how hot, cold, wet, or windy it might be!

Date:

Astronomy

Apr. 22, 2013 Rise Set
Actual Time 6:04 AM MDT 7:39 PM MDT
Civil Twilight 5:35 AM MDT 8:07 PM MDT
Nautical Twilight 5:00 AM MDT 8:42 PM MDT
Astronomical Twilight 4:24 AM MDT 9:19 PM MDT
Moon 4:30 PM MDT (4/22) 4:00 AM MDT (4/22)
Length of Visible Light 14h 32m
Length of Day
13h 34m
Waxing Gibbous, 88% of the Moon is Illuminated
Apr 22
Waxing Gibbous
Apr 25
Full
May 2
Last Quarter
May 9
New
May 17
First Quarter

Hourly Weather History & Observations

Time (MDT) Temp. Windchill Dew Point Humidity Pressure Visibility Wind Dir Wind Speed Gust Speed Precip Events Conditions
12:53 AM 41.0 °F 33.9 °F 39.0 °F 93% 29.93 in 10.0 mi SE 12.7 mph - N/A   Clear
1:53 AM 41.0 °F 33.1 °F 39.0 °F 93% 29.88 in 10.0 mi SE 15.0 mph - N/A   Mostly Cloudy
2:53 AM 41.0 °F 33.9 °F 37.9 °F 89% 29.86 in 10.0 mi SSE 12.7 mph - N/A   Mostly Cloudy
3:53 AM 42.1 °F 34.5 °F 37.9 °F 85% 29.88 in 10.0 mi North 15.0 mph 32.2 mph N/A   Overcast
4:53 AM 42.1 °F 37.1 °F 37.9 °F 85% 29.85 in 10.0 mi SE 8.1 mph - N/A   Overcast
5:53 AM 41.0 °F 38.0 °F 37.9 °F 89% 29.84 in 10.0 mi ESE 4.6 mph - 0.00 in   Mostly Cloudy
6:38 AM 41.0 °F 31.4 °F 39.2 °F 93% 29.97 in 6.0 mi NNW 21.9 mph 29.9 mph 0.01 in Rain Light Rain
6:45 AM 39.2 °F 29.3 °F 39.2 °F 100% 29.97 in 4.0 mi NNW 20.7 mph 29.9 mph 0.02 in Rain Light Rain
6:53 AM 39.9 °F 31.1 °F 39.0 °F 97% 29.94 in 8.0 mi NNW 17.3 mph - 0.02 in Rain Light Rain
7:53 AM 42.1 °F 38.4 °F 39.9 °F 92% 29.89 in 10.0 mi SE 5.8 mph - 0.00 in   Clear
9:34 AM 44.6 °F 34.9 °F 42.8 °F 93% 29.96 in 10.0 mi North 28.8 mph 33.4 mph N/A   Mostly Cloudy
9:53 AM 42.1 °F 31.1 °F 39.0 °F 89% 29.97 in 10.0 mi NNW 31.1 mph 35.7 mph N/A   Overcast
10:19 AM 39.2 °F 28.3 °F 37.4 °F 93% 29.99 in 10.0 mi NNW 25.3 mph 34.5 mph N/A   Overcast
10:45 AM 39.2 °F 28.5 °F 37.4 °F 93% 30.00 in 10.0 mi North 24.2 mph 32.2 mph N/A   Overcast
10:53 AM 39.0 °F 28.3 °F 36.0 °F 89% 30.01 in 10.0 mi North 24.2 mph 31.1 mph N/A   Overcast
11:10 AM 37.4 °F 26.1 °F 35.6 °F 93% 30.02 in 10.0 mi North 24.2 mph - N/A   Overcast
11:47 AM 35.6 °F 22.3 °F 33.8 °F 93% 30.04 in 1.8 mi North 31.1 mph 38.0 mph N/A   Overcast
11:53 AM 34.0 °F 19.9 °F 33.1 °F 96% 30.07 in 1.2 mi North 32.2 mph 38.0 mph N/A   Overcast
12:03 PM 32.0 °F 17.4 °F 32.0 °F 100% 30.06 in 0.8 mi North 31.1 mph 42.6 mph N/A   Mist
12:13 PM 30.2 °F 15.2 °F 30.2 °F 100% 30.06 in 1.0 mi NNE 29.9 mph 39.1 mph 0.00 in   Mist
12:17 PM 30.2 °F 15.4 °F 30.2 °F 100% 30.06 in 1.5 mi North 28.8 mph 39.1 mph 0.00 in   Overcast
12:26 PM 30.2 °F 15.4 °F 28.4 °F 93% 30.07 in 2.5 mi NNE 28.8 mph 35.7 mph 0.00 in   Overcast
12:33 PM 28.4 °F 12.7 °F 28.4 °F 100% 30.07 in 3.0 mi NNE 29.9 mph 39.1 mph 0.00 in   Overcast
12:53 PM 28.9 °F 14.0 °F 28.0 °F 96% 30.13 in 8.0 mi NNE 27.6 mph 35.7 mph 0.00 in   Overcast
1:53 PM 28.9 °F 13.2 °F 25.0 °F 85% 30.13 in 10.0 mi NNE 31.1 mph 36.8 mph 0.00 in   Overcast
2:44 PM 28.4 °F 13.3 °F 24.8 °F 86% 30.12 in 1.8 mi NNE 27.6 mph 33.4 mph 0.00 in Snow Light Snow
2:53 PM 28.9 °F 14.5 °F 25.0 °F 85% 30.17 in 1.8 mi NNE 25.3 mph 32.2 mph 0.00 in Snow Light Snow
3:14 PM 26.6 °F 11.4 °F 24.8 °F 93% 30.13 in 1.0 mi NNE 25.3 mph - 0.00 in Snow Light Snow
3:20 PM 26.6 °F 11.1 °F 24.8 °F 93% 30.12 in 0.5 mi NNE 26.5 mph 34.5 mph 0.00 in Fog , Snow Light Snow
3:38 PM 26.6 °F 13.1 °F 24.8 °F 93% 30.16 in 1.0 mi NNE 19.6 mph 29.9 mph 0.00 in Snow Light Snow
3:48 PM 26.6 °F 12.7 °F 24.8 °F 93% 30.15 in 1.0 mi NNE 20.7 mph - 0.00 in Snow Light Snow
3:53 PM 26.1 °F 12.3 °F 25.0 °F 96% 30.21 in 1.0 mi NNE 19.6 mph - 0.00 in Snow Light Snow
3:57 PM 26.6 °F 13.1 °F 24.8 °F 93% 30.14 in 0.8 mi NNE 19.6 mph - 0.00 in Snow Light Snow
4:19 PM 26.6 °F 12.0 °F 24.8 °F 93% 30.15 in 0.8 mi NNE 23.0 mph - 0.00 in Snow Light Snow
4:22 PM 26.6 °F 12.4 °F 24.8 °F 93% 30.15 in 1.2 mi NNE 21.9 mph - 0.00 in Snow Light Snow
4:31 PM 26.6 °F 13.4 °F 24.8 °F 93% 30.16 in 1.5 mi NNE 18.4 mph - 0.00 in Snow Light Snow
4:40 PM 26.6 °F 12.4 °F 24.8 °F 93% 30.17 in 1.2 mi NNE 21.9 mph - 0.00 in Snow Light Snow
4:45 PM 26.6 °F 13.4 °F 24.8 °F 93% 30.18 in 1.0 mi NNE 18.4 mph - 0.00 in Snow Light Snow
4:53 PM 26.1 °F 12.0 °F 24.1 °F 92% 30.24 in 0.5 mi NNE 20.7 mph - 0.00 in Fog , Snow Snow
5:00 PM 26.6 °F 13.8 °F 24.8 °F 93% 30.17 in 0.5 mi NNE 17.3 mph - 0.00 in Fog , Snow Snow
5:40 PM 26.6 °F 11.7 °F 24.8 °F 93% 30.16 in 1.0 mi NNE 24.2 mph - 0.00 in Snow Light Snow
5:45 PM 26.6 °F 12.7 °F 24.8 °F 93% 30.16 in 1.5 mi NNE 20.7 mph - 0.00 in Snow Light Snow
5:53 PM 26.1 °F 11.3 °F 24.1 °F 92% 30.22 in 1.5 mi NNE 23.0 mph - 0.00 in Snow Light Snow
6:10 PM 24.8 °F 12.9 °F 23.0 °F 93% 30.20 in 1.2 mi NNE 13.8 mph - 0.00 in Snow Light Snow
6:17 PM 24.8 °F 10.3 °F 24.8 °F 100% 30.20 in 2.0 mi NNE 20.7 mph 24.2 mph 0.00 in Snow Light Snow
6:21 PM 24.8 °F 11.1 °F 23.0 °F 93% 30.21 in 3.0 mi NNE 18.4 mph - 0.00 in Snow Light Snow
6:39 PM 24.8 °F 11.1 °F 23.0 °F 93% 30.22 in 1.5 mi NNE 18.4 mph - 0.00 in Snow Light Snow
6:41 PM 24.8 °F 11.5 °F 23.0 °F 93% 30.21 in 1.0 mi NNE 17.3 mph - 0.00 in Snow Light Snow
6:44 PM 24.8 °F 11.9 °F 23.0 °F 93% 30.22 in 0.8 mi NNE 16.1 mph - 0.00 in Snow Light Snow
6:53 PM 24.1 °F 13.1 °F 23.0 °F 96% 30.31 in 0.5 mi NNE 11.5 mph - 0.00 in Fog , Snow Snow
7:02 PM 24.8 °F 11.5 °F 23.0 °F 93% 30.22 in 0.5 mi NNE 17.3 mph - 0.00 in Fog , Snow Snow
7:53 PM 24.1 °F 12.5 °F 21.9 °F 91% 30.31 in 0.5 mi NNE 12.7 mph - 0.01 in Fog , Snow Snow
8:08 PM 24.8 °F 11.9 °F 21.2 °F 86% 30.26 in 1.0 mi North 16.1 mph - 0.00 in Snow Light Snow
8:33 PM 24.8 °F 11.5 °F 21.2 °F 86% 30.25 in 1.2 mi North 17.3 mph - 0.00 in Snow Light Snow
8:36 PM 24.8 °F 12.4 °F 23.0 °F 93% 30.25 in 1.2 mi North 15.0 mph - 0.00 in Snow Light Snow
8:41 PM 24.8 °F 11.1 °F 23.0 °F 93% 30.25 in 1.5 mi North 18.4 mph - 0.00 in Snow Light Snow
8:45 PM 24.8 °F 10.7 °F 21.2 °F 86% 30.26 in 1.0 mi North 19.6 mph - 0.00 in Snow Light Snow
8:48 PM 24.8 °F 11.1 °F 21.2 °F 86% 30.25 in 0.8 mi North 18.4 mph - 0.00 in Snow Light Snow
8:53 PM 24.1 °F 10.6 °F 23.0 °F 96% 30.25 in 0.8 mi North 17.3 mph 23.0 mph 0.00 in Snow Light Snow
9:19 PM 23.0 °F 8.7 °F 21.2 °F 93% 30.28 in 1.0 mi North 18.4 mph - 0.00 in Snow Light Snow
9:53 PM 21.9 °F 8.7 °F 21.0 °F 96% 30.37 in 0.8 mi NNE 15.0 mph - 0.00 in Snow Light Snow
10:15 PM 23.0 °F 13.1 °F 21.2 °F 93% 30.29 in 0.5 mi NNE 9.2 mph - 0.02 in Fog , Snow Snow
10:53 PM 21.9 °F 9.2 °F 21.0 °F 96% 30.37 in 0.5 mi NNE 13.8 mph - 0.03 in Fog , Snow Snow
11:27 PM 21.2 °F 8.3 °F 19.4 °F 93% 30.27 in 0.8 mi NNE 13.8 mph - 0.01 in Snow Light Snow
11:37 PM 21.2 °F 8.3 °F 21.2 °F 100% 30.27 in 1.0 mi NNE 13.8 mph - 0.01 in Snow Light Snow
11:41 PM 21.2 °F 6.8 °F 19.4 °F 93% 30.27 in 1.2 mi NNE 17.3 mph - 0.01 in Snow Light Snow
11:53 PM 21.0 °F 8.1 °F 19.9 °F 96% 30.37 in 1.5 mi NNE 13.8 mph - 0.01 in Snow Light Snow